COSMOS 1275 DEB, 42225

Orbit data source: Space-Track

COSMOS 1275 DEB, 42225 is space debris in LEO originally from a launch on Thu, 04 Jun 1981 UTC launched from the Plesetsk Missile And Space Complex (PKMTR). Debris objects in space refer to the collection of defunct objects orbiting the Earth. Examples of debris include non-operational satellites, rocket bodies, and fragments generated from explosions, collisions, or faulty payload assembly.

Loading next visibility...
Identifier
42225, 1981-053UR
Orbit
LEO
Country
Flag of CISCIS
Related business
Manufacturer
Unknown
Mission
Spacecraft
Bus & Motor
Unknown
Mass
Unknown
Launch date (UTC)
1981-06-04 (44 years ago)
Launch vehicle
Unknown
Launch site
Plesetsk Missile And Space Complex (PKMTR)
Object type
Payload
Rocket body
Debris
Shape & HBR
Unknown shape, 0.1 m
Radar Cross Section
Small (<0.1 m²)

Expand to show TLE details & history
Last TLE update: 2 days ago

TLE from 2 days ago
0 COSMOS 1275 DEB
1 42225U 81053UR  25290.96138914  .00003681  00000-0  18244-2 0  9990
2 42225  83.1506  14.9199 0036733 164.8425 195.3865 14.16640914611781
Epoch: 2025-10-17T23:04Z
TLE epoch observation values (Epoch: 2025-10-17T23:04:24.021Z)
Latitude
-0.00003°
Longitude
2.12056°
Altitude
865.263 km
Speed
7.407 km/s
True Right ascension
00h 59m 40s
True Declination
0° 00' 00"
Sunlit
Object was in full shadow at epoch
Visualization orbit readout
Latitude
Unknown
Longitude
Unknown
Altitude
Unknown
Speed
Unknown
Apparent Right ascension
Unknown
Apparent Declination
Unknown
Sunlit
N/A
Visualization observer readout
Local Sidereal Time
18:44:23
Azimuth
Unknown
Elevation
Unknown
Doppler factor
Unknown
Orbital elements
Apogee altitude
860.31 km
Perigee altitude
807.327 km
Semi-major axis
7,211.956 km
Eccentricity
0.00367
Inclination
83.1506°
RAAN
14.9199°
Arg. of periapsis
164.8425°
True anomaly
195.27531°
Mean anomaly
195.3865°
Eccentric anomaly
195.33085°
Mean motion
3.54375 °/min
Orbital period
101.59 mins
BSTAR
0.0018244
Loading maneuver chart data...
Computing Atmospheric mass density...

Documentation

Showing up to 5 results
|